Regional Weather Roundup
Issued by NWS

Home | Current Version | Previous Version | Graphics & Text | Print | Product List | Glossary On
Versions: 1 2 3 4 5 6 7 8 9 10 11 12 13 14 15 16 17 18 19 20 21 22 23 24 25 26 27 28 29 30 31 32 33 34 35 36 37 38 39 40 41 42 43 44 45 46 47 48 49 50
396
ASUS45 KCYS 060610
RWRWY

WYOMING REGIONAL WEATHER ROUNDUP
NATIONAL WEATHER SERVICE CHEYENNE WY
1100 PM MST MON DEC 05 2016

NOTE:  "FAIR" INDICATES FEW OR NO CLOUDS BELOW 12,000 FEET
WITH NO SIGNIFICANT WEATHER AND/OR OBSTRUCTIONS TO VISIBILITY.

WYZ001-060700-
YELLOWSTONE NATIONAL PARK

CITY           SKY/WX    TMP DP  RH WIND       PRES   REMARKS
LK YELLOWSTONE   N/A     -5  -8  87 NW3       29.83S
6HR MIN TEMP: -10; 6HR MAX TEMP:   1;

W YELLOWSTONE  NOT AVBL

$$
WYZ002>013-054>058-071-098>099-060700-
NORTHERN WYOMING

CITY           SKY/WX    TMP DP  RH WIND       PRES   REMARKS
JACKSON        FAIR      -8 -11  84 NE3       29.93R
CODY           FAIR       1  -2  87 VRB3      29.92S
GREYBULL       FAIR      11   5  77 E5        30.00R WCI   3
6HR MIN TEMP:  11; 6HR MAX TEMP:  23;

WORLAND        FAIR       9   6  88 S5        29.99R WCI   1
6HR MIN TEMP:   8; 6HR MAX TEMP:  20;

SHERIDAN       FAIR       2  -2  83 SW5       29.98R WCI  -8
6HR MIN TEMP:   2; 6HR MAX TEMP:  18;

BUFFALO        FAIR       5  -5  63 SW5       29.91S WCI  -4
6HR MIN TEMP:   5; 6HR MAX TEMP:  17; 6HR PCP: TRACE;

GILLETTE       FAIR       2  -1  88 W10       29.94R WCI -14
6HR MIN TEMP:   0; 6HR MAX TEMP:  15;

HULETT         FAIR      10   1  67 SW8       29.92S WCI  -1
NEWCASTLE      FAIR      10   1  67 N7        29.93S WCI   0

$$
WYZ014>020-022>026-101>103-060700-
CENTRAL WYOMING

CITY           SKY/WX    TMP DP  RH WIND       PRES   REMARKS
BIG PINEY      FAIR     -10 -15  78 N10       29.92S WCI -29
6HR MIN TEMP: -13; 6HR MAX TEMP:   7;

PINEDALE       FAIR     -15 -20  76 NW6       29.93S WCI -29
DUBOIS         FAIR      -2  -9  71 W14       29.85S WCI -21
LANDER         FAIR       5  -6  60 E3        29.93S
6HR MIN TEMP:   5; 6HR MAX TEMP:  18;

RIVERTON       FAIR      10  -3  55 W10       29.94R WCI  -4
6HR MIN TEMP:   8; 6HR MAX TEMP:  18;

CASPER         FAIR       0  -4  83 W9        29.94R WCI -15
6HR MIN TEMP:  -2; 6HR MAX TEMP:  17; 6HR PCP: TRACE;

DOUGLAS        FAIR       4   0  83 NW6       29.95S WCI  -7
6HR MIN TEMP:   4; 6HR MAX TEMP:  17;


$$
WYZ021-027>030-104>119-060700-
SOUTHERN WYOMING

CITY           SKY/WX    TMP DP  RH WIND       PRES   REMARKS
EVANSTON       FAIR       3 -15  43 S7        29.91S WCI  -9
6HR MIN TEMP:   1; 6HR MAX TEMP:  13;

KEMMERER         N/A     -4  -9  77 NW8       29.90F WCI -19
FORT BRIDGER   FAIR       2 -16  42 SW9       29.94F WCI -13
ROCK SPRINGS   FAIR       5  -7  57 SW6       29.94S WCI  -6
6HR MIN TEMP:   3; 6HR MAX TEMP:  13;

DIXON          FAIR      -1  -9  67 CALM      30.00R
RAWLINS        FAIR       3  -9  57 SW10      29.91R WCI -12
6HR MIN TEMP:   3; 6HR MAX TEMP:  15;

SARATOGA       FAIR       3  -8  60 SW10      29.91R WCI -12
LARAMIE        FAIR       6 -10  47 NW18      29.85R WCI -13
6HR MIN TEMP:   1; 6HR MAX TEMP:  14;

CHEYENNE       FAIR      11  -8  42 NW16      29.89R WCI  -6
6HR MIN TEMP:  11; 6HR MAX TEMP:  21;

TORRINGTON     FAIR      14   3  61 NW12      29.96R WCI   0
6HR MIN TEMP:  14; 6HR MAX TEMP:  21;

PINE BLUFFS    FAIR      12   9  85 NW14G23   29.93R WCI  -3

$$




USA.gov is the U.S. government's official web portal to all federal, state and local government web resources and services.